If you wish to contribute or participate in the discussions about articles you are invited to join SKYbrary as a registered user

 Actions

Lyon-Bron Airport

From SKYbrary Wiki

LFLY
Airport
ICAO: LFLY – IATA: LYN
Summary
Name Lyon-Bron Airport
Region Europe
Territory France FR.gif
Location , Rhone-Alpes
Serving Lyon
Elevation 200.863 m
659 ft
659 ft200.863 m
Type medium airport
Coordinates 45° 43' 37.82" N, 4° 56' 39.39" E
Runways
Designator Length Width Surface ROPS
16/34 1820 m5,971.129 ft
45 m147.638 ft
ASP yes/yes


METAR
Observation LFLY 181130Z AUTO 19014KT 160V220 CAVOK 19/12 Q1014 TEMPO 18015G25KT 4000 SHRA SCT040CB
Station Lyon / Bron
Date/Time 18 October 2019 11:30:00
Wind direction 190°
Wind speed 14 kts
Lowest cloud amount scattered clouds
Temperature 19°C
Dew point 12°C
Humidity 63%
QNH 1014 hPa
Weather condition n/a